Preview of NWS' New Version of Forecast
This preview is not operational and should not be used for support decisions.
Latest weather observations around

Hawthorne, Hawthorne Municipal Airport (KHHR)

Using English Units (Switch to International System of Units)
Date/ Time (PDT) Wind (mph) Vis. (mi) Weather Sky Cond. Temp (°F) Rel. Humidity Wind Chill (°F) Heat Index (°F) Pressure Precip. (in)
Air Dwpt 6 hour Altimeter (inHg) Sea level (inHg) 1 hr 3 hr 6 hr
Max Min
Sep 21 13:53 W 10 10 Clear CLR 81 62     53%   82 29.84 29.83      
Sep 21 12:53 WSW 8 10 Clear CLR 79 62     56%   79 29.86 29.85      
Sep 21 11:53 W 8 10 Clear CLR 79 62     56%   79 29.88 29.88      
Sep 21 10:53 Calm 10 Clear CLR 77 59     54%   77 29.9 29.9      
Sep 21 09:53 3 10 Clear CLR 73 60     64%   73 29.92 29.91      
Sep 21 08:53 ESE 3 9 Clear CLR 70 61     73%     29.91 29.91      
Sep 21 07:53 ESE 3 9 Clear CLR 67 60     79%     29.91 29.9      
Sep 21 06:53 Calm 10 Clear CLR 66 59     78%     29.89 29.89      
Sep 21 05:53 Calm 10 Clear CLR 65 59     81%     29.88 29.88      
Sep 21 04:53 Calm 10 Clear CLR 65 59     81%     29.87 29.86      
Sep 21 03:53 Calm 10 Clear CLR 65 58     78%     29.87 29.87      
Sep 21 02:53 Calm 10 Clear CLR 67 59     76%     29.88 29.87      
Sep 21 01:53 Calm 10 Clear CLR 67 59     76%     29.89 29.88      
Sep 21 00:53 Calm 10 Clear CLR 68 60     76%     29.88 29.88      
Sep 20 23:53 Calm 10 Clear CLR 69 60     73%     29.88 29.87      
Sep 20 22:53 Calm 10 Clear CLR 69 61     75%     29.88 29.87      
Sep 20 21:53 3 10 Clear CLR 70 61     73%     29.86 29.86      
Sep 20 20:53 WSW 8 10 Clear CLR 70 60     71%     29.85 29.84      
Sep 20 19:53 WSW 9 10 Clear CLR 70 62     76%     29.83 29.83      
Sep 20 18:53 WNW 6 10 Clear CLR 72 61     68%   72 29.83 29.82      
Sep 20 17:53 W 13 10 Clear CLR 73 61     66%   73 29.83 29.82      
Sep 20 16:53 WSW 15 10 Clear   74 60     62%   74 29.85 29.84      
Sep 20 15:53 W 15 10 Clear CLR 76 59     56%   76 29.85 29.84      
Sep 20 14:53 W 11 10 Clear   75 59     57%   75 29.86 29.85      
Sep 20 13:53 WSW 11 10 Clear CLR 75 60     60%   75 29.87 29.87      
Sep 20 12:53 WSW 9 10 Clear CLR 76 59     56%   76 29.88 29.88      
Sep 20 11:53 SSW 9 10 Clear CLR 76 59     56%   76 29.89 29.88      
Sep 20 10:53 Calm 10 Mostly Clear FEW031 76 57     52%   76 29.9 29.89      
Sep 20 09:53 Calm 10 Mostly Clear FEW026 72 57     59%   72 29.92 29.91      
Sep 20 08:53 Calm 10 Clear CLR 69 59     70%     29.91 29.91      
Sep 20 07:53 ESE 3 10 Clear CLR 68 59     73%     29.89 29.89      
Sep 20 06:53 Calm 10 Mostly Cloudy FEW017 SCT024 BKN030 66 58     75%     29.89 29.88      
Sep 20 05:53 Calm 10 Cloudy SCT020 BKN025 OVC030 66 58     75%     29.88 29.87      
Sep 20 05:22 Calm 10 Mostly Cloudy BKN024 65 58     78%     29.87        
Sep 20 04:53 Calm 10 Clear CLR 65 58     78%     29.87 29.86      
Sep 20 03:53 Calm 10 Clear CLR 65 58     78%     29.86 29.85      
Sep 20 03:26 Calm 10 Partly Cloudy SCT019 65 57     76%     29.86        
Sep 20 03:14 Calm 10 Mostly Cloudy BKN019 65 57     76%     29.86        
Sep 20 02:53 Calm 10 Clear CLR 65 57     76%     29.86 29.85      
Sep 20 01:53 Calm 10 Clear CLR 66 57     73%     29.86 29.86      
Sep 20 00:53 SE 3 10 Clear CLR 67 58     73%     29.85 29.84      
Sep 19 23:53 Calm 10 Clear CLR 68 58     70%     29.83 29.83      
Sep 19 22:53 SSW 3 10 Clear CLR 69 57     65%     29.83 29.82      
Sep 19 21:53 WSW 5 10 Clear CLR 69 57     65%     29.82 29.82      
Sep 19 20:53 SW 5 10 Clear CLR 70 59     68%     29.82 29.82      
Sep 19 19:53 WSW 7 10 Clear CLR 70 59     68%     29.81 29.81      
Sep 19 18:53 SW 9 10 Clear CLR 70 60     71%     29.82 29.81      
Sep 19 17:53 WSW 11 10 Mostly Clear FEW019 71 60     68%   71 29.82 29.82      
Sep 19 16:53 W 13 10 Partly Cloudy SCT018 73 61     66%   73 29.82 29.82      
Sep 19 16:32 W 13 5 Haze SCT018 73 61     66%   73 29.82        
Sep 19 16:28 W 13 1 Haze VV019 74 61     64%   74 29.82        
Sep 19 16:21 WSW 13 1.25 Haze SCT019 73 60     64%   73 29.82        
Sep 19 16:07 W 14 10 Mostly Cloudy BKN018 74 61     64%   74 29.82        
Sep 19 15:53 WSW 14 10 Partly Cloudy SCT019 74 61     64%   74 29.83 29.82      
Sep 19 14:53 W 15 10 Clear CLR 76 61     60%   76 29.84 29.83      
Sep 19 13:53 W 13 10 Clear CLR 77 58     52%   77 29.84 29.84      
Sep 19 12:53 WSW 9 10 Clear CLR 77 59     54%   77 29.86 29.85      
Sep 19 11:53 3 10 Cloudy OVC034 75 58     55%   75 29.88 29.87      
Sep 19 10:53 ESE 3 10 Cloudy FEW028 OVC034 74 58     57%   74 29.89 29.89      
Sep 19 10:40 Calm 10 Cloudy OVC031 72 58     61%   72 29.9        
Sep 19 10:06 Calm 10 Mostly Cloudy BKN027 72 58     61%   72 29.9        
Sep 19 09:53 3 10 Partly Cloudy SCT025 71 59     66%   71 29.9 29.89      
Sep 19 09:14 ESE 7 10 Partly Cloudy FEW020 SCT027 70 59     68%     29.9        
Sep 19 08:53 ESE 7 9 Mostly Cloudy BKN021 70 60     71%     29.9 29.9      
Notice The following observation data may not be complete
Sep 19 08:07   10 Mostly Cloudy BKN015          %              
Sep 19 07:53 SE 6 10 Partly Cloudy SCT015 68 60     76%     29.9 29.89      
Sep 19 07:37 ESE 5 10 Partly Cloudy FEW016 SCT026 SCT033 68 60     76%     29.9        
Sep 19 06:53 ESE 5 10 Cloudy SCT022 OVC029 68 60     76%     29.89 29.88      
Sep 19 05:53 E 6 10 Cloudy FEW011 OVC028 68 61     78%     29.88 29.87      
Sep 19 04:53 Calm 10 Cloudy BKN018 OVC024 68 60     76%     29.88 29.88      
Sep 19 04:35 Calm 10 Mostly Cloudy FEW016 BKN022 67 60     79%     29.88        
Sep 19 03:53 E 5 10 Mostly Clear FEW020 67 59     76%     29.88 29.88      
Sep 19 02:53 E 3 10 Clear CLR 67 60     79%     29.89 29.89      
Sep 19 01:53 Calm 10 Clear CLR 68 61     78%     29.89 29.89      
Sep 19 00:53 Calm 10 Clear CLR 68 61     78%     29.88 29.88      
Sep 18 23:53 S 3 10 Clear CLR 69 62     78%     29.87 29.86      
Sep 18 22:53 W 3 10 Clear CLR 69 62     78%     29.88 29.88      
Sep 18 21:53 SW 3 10 Clear CLR 69 63     81%     29.88 29.88      
Sep 18 20:53 SW 5 10 Clear CLR 70 63     78%     29.88 29.87      
Sep 18 19:53 WSW 8 10 Clear CLR 70 62     76%     29.87 29.86      
Sep 18 18:53 WSW 8 10 Clear CLR 71 62     73%   71 29.86 29.86      
Sep 18 17:53 W 10 10 Clear CLR 75 60     60%   75 29.87 29.86      
Sep 18 16:53 W 14 10 Clear CLR 75 60     60%   75 29.87 29.86      
Sep 18 15:53 WSW 11 10 Clear CLR 78 60     54%   78 29.87 29.87      
Sep 18 14:53 W 11 10 Clear CLR 78 61     56%   78 29.89 29.88      
Sep 18 14:23 W 10 10 Clear CLR 78 60     54%   78 29.9        
Sep 18 14:13 W 9 1.25 Haze CLR 78 60     54%   78 29.9        
Sep 18 12:53 WSW 9 10 Clear CLR 78 61     56%   78 29.92 29.91      
Sep 18 11:53   10 Clear CLR 78 59     52%   78 29.93 29.93      
May 15 07:44 SW 5 10 Mostly Cloudy BKN019 59 52     78%     30.05        
May 14 09:16 Calm 10 Partly Cloudy SCT019 61 52     72%     29.99        
May 14 04:53 Calm 10 Clear CLR 58 52     81%     29.96 29.96      
May 13 13:53 3 10 Mostly Cloudy BKN033 66 51     59%     30.03 30.02      
May 13 09:53 W 7 10 Cloudy OVC027 61 51     70%     30.06 30.06      
May 12 09:53 SSE 6 10 Cloudy OVC033 61 50     67%     29.98 29.98      
May 12 00:53 ESE 7 10 Cloudy SCT028 OVC036 60 55     83%     29.89 29.88      
May 11 22:40 6 10 Cloudy FEW019 BKN030 OVC041 61 55     81%     29.88        
May 11 18:53 ESE 8 10 Cloudy BKN021 OVC033 62 53     72%     29.82 29.82      
Jun 12 02:53 E 3 10 Clear CLR 59 52     78%     29.97 29.97      
Jun 11 14:53 SW 11 10 Partly Cloudy FEW024 SCT029 69 54     59%     29.92 29.92      
Jun 11 03:53 SE 6 10 Cloudy OVC031 62 56     80%     29.86 29.85 0    
Jun 11 03:44 SE 6 10 Cloudy OVC031 62 56     80%     29.86   0    
Jun 10 21:53 WSW 7 10 Mostly Cloudy BKN025 64 56     75%     29.88 29.87      
Jun 10 20:15 WSW 8 10 Mostly Cloudy BKN025 65 55     70%     29.85        
Jun 10 12:53 S 9 10 Mostly Clear FEW029 69 56     63%     29.88 29.88      
Jun 10 08:53 SE 7 10 Cloudy OVC027 64 56     75%     29.9 29.89      
Jun 09 18:53 WSW 15 10 Mostly Cloudy BKN011 BKN014 66 61     84%     29.89 29.89      
Jun 09 00:53 SE 3 10 Clear CLR 61 57     87%     29.95 29.94      
Jun 08 08:53 WSW 7 10 Cloudy BKN011 OVC015 62 59     90%     30.01 30.01 0    
Jun 08 07:53 W 6 10 Cloudy SCT008 OVC015 62 59     90%     30 30      
Jun 08 01:04 WSW 6 10 Cloudy BKN007 OVC012 61 59     93%     29.99        
Jun 08 00:27 WSW 3 9 Cloudy SCT006 OVC013 61 60     97%     29.99   0    
Jun 06 09:53 S 5 9 Cloudy OVC014 64 59     84%     29.95 29.95